Location: Shepherdstown, WV
(39.4326°N, 77.8042°W)
Time: 20:13:03
(UTC-04:00)

Vanguard 1 Rocket - Pass Details

Date: 14 August 2021
Orbit: 650 x 4226 km, 34.3° (Epoch: 19 September)

Event Time Altitude Azimuth Distance (km) Brightness Sun altitude
Rises 08:32:14 0° 247° (WSW) 8,141 11.7 23.6°
Reaches altitude 10° 08:37:35 10° 246° (WSW) 7,303 11.6 24.6°
Maximum altitude 09:03:52 72° 168° (SSE) 3,959 11.2 29.7°
Drops below altitude 10° 09:22:13 10° 89° (E) 5,415 12.8 33.2°
Sets 09:25:30 0° 87° (E) 6,056 12.6 33.8°
